Regional Weather Roundup
Issued by NWS

Home | Current Version | Previous Version | Text Only | Print | Product List | Glossary Off
Versions: 1 2 3 4 5 6 7 8 9 10 11 12 13 14 15 16 17 18 19 20 21 22 23 24 25 26 27 28 29 30 31 32 33 34 35 36 37 38 39 40 41 42 43 44 45 46 47 48 49 50

522
ASUS43 KIND 131109
RWRIN

WEATHER ROUNDUP FOR INDIANA
NATIONAL WEATHER SERVICE INDIANAPOLIS IN
600 AM EST WED DEC 13 2017

NOTE: "FAIR" INDICATES FEW OR NO CLOUDS BELOW 12,000 FEET WITH NO
SIGNIFICANT WEATHER AND/OR OBSTRUCTIONS TO VISIBILITY.

* - STATION DOES NOT REPORT WEATHER SUCH AS PRECIPITATION OR FOG.

+ - STATION NOT QUALITY CONTROLLED BY THE NATIONAL WEATHER SERVICE.
    USE DATA WITH CAUTION...ESPECIALLY DEWPOINT AND RELATIVE
    HUMIDITY OBSERVATIONS.

INZ001>003-010>013-019-020-131200-
NORTHWEST INDIANA

CITY           SKY/WX    TMP DP  RH WIND       PRES   REMARKS
GARY /AIRPORT/ CLOUDY    25   9  50 S8        29.77F WCI  16
KNOX *+        CLOUDY    21  12  68 S12       29.81F WCI   9
LA PORTE +     CLOUDY    19  12  73 S7        29.79F WCI  10
MICHIGAN CITY+ CLOUDY    21  12  68 S8        29.78F WCI  12
MONTICELLO +   CLOUDY    22   8  55 S7        29.82F WCI  13
RENSSELAER +   CLOUDY    25   5  42 S8        29.81F WCI  16
VALPARAISO     CLOUDY    22  12  65 S9        29.78F WCI  12

$$

LMZ046-743>745-131200-
SOUTHERN LAKE MICHIGAN

STATION/POSITION TIME  TEMP    WIND        PRES    WAVE
                       AIR SEA DIR/SP/G            HT
                 (UTC) (F)     (DEG/KT/KT) (MB)    (FT)
BURNS HARBOR     1040   23     180/ 10/ 15 1009.1F
MICHIGAN CITY    1040   20     150/ 13/ 16   N/A

$$

INZ004-005-014>016-021>024-131200-
NORTH CENTRAL INDIANA

CITY           SKY/WX    TMP DP  RH WIND       PRES   REMARKS
GOSHEN         CLOUDY    18   9  68 S10       29.80F WCI   6
LOGANSPORT +   CLOUDY    21  10  63 S9        29.84F WCI  11
PERU/GRISSOM   CLOUDY    21  10  62 S10       29.83F WCI  10
ROCHESTER +    CLOUDY    23  12  63 S9        29.83F WCI  13
SOUTH BEND     CLOUDY    18  11  74 S8        29.79F WCI   8
WARSAW +       CLOUDY    19  10  68 S5        29.82F WCI  13

$$

INZ006>009-017-018-025>027-131200-
NORTHEAST INDIANA

CITY           SKY/WX    TMP DP  RH WIND       PRES   REMARKS
AUBURN +       CLOUDY    19  10  68 S5        29.84F WCI  13
FORT WAYNE     CLOUDY    19  12  74 SW10      29.85F WCI   7
HUNTINGTON +   CLOUDY    19   8  62 S5        29.85F WCI  12
KENDALLVILLE + CLOUDY    17   9  72 SW8       29.80F WCI   6

$$

INZ028-029-035-036-043>045-051>053-131200-
WEST CENTRAL INDIANA

CITY           SKY/WX    TMP DP  RH WIND       PRES   REMARKS
CRAWFORDSVL +  CLOUDY    21  10  62 S12       29.86  WCI   9
GREENCASTLE +  CLOUDY    21  10  63 S6        29.88F WCI  14
LAFAYETTE      CLOUDY    23  10  57 S7        29.84F WCI  15
TERRE HAUTE    CLOUDY    24  10  55 S6        29.90F WCI  17

$$

INZ030>032-037>040-046>048-054>057-064-065-131200-
CENTRAL INDIANA

CITY           SKY/WX    TMP DP  RH WIND       PRES   REMARKS
FRANKFORT +    CLOUDY    25  11  56 S8        29.85F WCI  16
INDIANAPOLIS   CLOUDY    21   9  59 S10       29.88F WCI  10
-EAGLE CREEK   CLOUDY    21   8  57 S5        29.87F WCI  15
KOKOMO +       CLOUDY    20  11  68 S10       29.85F WCI   9
MARION +       LGT SNOW  19  10  69 S9        29.87F WCI   8
MT COMFORT *+  CLOUDY    19  12  73 S7        29.88F WCI  10
SHELBYVILLE    CLOUDY    22   8  55 S9        29.90F WCI  12
ZIONSVILLE +   CLOUDY    20   9  61 S8        29.86F WCI  10

$$

INZ033-034-041-042-049-050-058-059-131200-
EAST CENTRAL INDIANA

CITY           SKY/WX    TMP DP  RH WIND       PRES   REMARKS
MUNCIE         CLOUDY    20   7  57 SW8       29.87F WCI  10
RICHMOND +     CLOUDY    18  10  73 SW9       29.89F WCI   6

$$

INZ060-061-067>069-081>083-085>088-131200-
SOUTHWEST INDIANA

CITY           SKY/WX    TMP DP  RH WIND       PRES   REMARKS
EVANSVILLE     CLOUDY    23  14  68 CALM      29.97F
HUNTINGBURG +  CLOUDY    20  13  74 S5        29.96F WCI  13
WASHINGTON +   CLOUDY    22  10  60 S7        29.93F WCI  13

$$

INZ062-063-066-070>080-084-089>092-131200-
SOUTH CENTRAL AND SOUTHEAST INDIANA

CITY           SKY/WX    TMP DP  RH WIND       PRES   REMARKS
BEDFORD +      CLOUDY    19  10  68 SE5       29.93F WCI  13
BLOOMINGTON    CLOUDY    20   9  62 SE6       29.91F WCI  12
MADISON *+     CLOUDY    21  10  63 S6        29.96F WCI  14
NORTH VERNON + PTCLDY    18   9  68 S5        29.94F WCI  11
SEYMOUR +      CLOUDY    18  10  73 S5        29.95F WCI  11

$$





USA.gov is the U.S. government's official web portal to all federal, state and local government web resources and services.